| time (UTC) | temp C | wind direction | speed KPH | gust KPH | rain 1hr cm | rain 24hr cm | rain mn cm | humidity % | barometer mb |
| 20260505011414 | 23 | 202 | 12.9 | 32.2 | 0.00 | 0.00 | 0.00 | 27 | 1002.4 |
| 20260505011327 | 23 | 180 | 12.9 | 32.2 | 0.00 | 0.00 | 0.00 | 26 | 1002.4 |
| 20260505010419 | 23 | 145 | 9.7 | 25.7 | 0.00 | 0.00 | 0.00 | 26 | 1002.4 |
| 20260505010316 | 23 | 140 | 12.9 | 25.7 | 0.00 | 0.00 | 0.00 | 26 | 1002.4 |
| 20260505005428 | 23 | 139 | 12.9 | 24.1 | 0.00 | 0.00 | 0.00 | 26 | 1002.5 |
| 20260505005320 | 23 | 220 | 9.7 | 24.1 | 0.00 | 0.00 | 0.00 | 26 | 1002.5 |
| 20260505004412 | 24 | 54 | 22.5 | 35.4 | 0.00 | 0.00 | 0.00 | 25 | 1002.4 |
| 20260505004324 | 24 | 63 | 19.3 | 35.4 | 0.00 | 0.00 | 0.00 | 25 | 1002.4 |
| 20260505003413 | 24 | 96 | 17.7 | 27.4 | 0.00 | 0.00 | 0.00 | 24 | 1002.3 |
| 20260505003326 | 24 | 100 | 17.7 | 27.4 | 0.00 | 0.00 | 0.00 | 24 | 1002.2 |
| 20260505002418 | 24 | 78 | 17.7 | 29.0 | 0.00 | 0.00 | 0.00 | 24 | 1002.3 |
| 20260505002314 | 24 | 76 | 16.1 | 29.0 | 0.00 | 0.00 | 0.00 | 24 | 1002.2 |
| 20260505001425 | 24 | 98 | 22.5 | 33.8 | 0.00 | 0.00 | 0.00 | 25 | 1002.2 |
| 20260505001318 | 24 | 84 | 24.1 | 33.8 | 0.00 | 0.00 | 0.00 | 25 | 1002.2 |
| 20260505000429 | 24 | 81 | 24.1 | 37.0 | 0.00 | 0.00 | 0.00 | 26 | 1002.3 |
| 20260505000322 | 24 | 80 | 27.4 | 37.0 | 0.00 | 0.00 | 0.00 | 26 | 1002.3 |
| 20260504235412 | 24 | 88 | 22.5 | 35.4 | 0.00 | 0.00 | 0.00 | 27 | 1002.3 |
| 20260504235325 | 24 | 75 | 22.5 | 33.8 | 0.00 | 0.00 | 0.00 | 26 | 1002.3 |
| 20260504234413 | 25 | 79 | 20.9 | 29.0 | 0.00 | 0.00 | 0.00 | 26 | 1002.3 |
| 20260504234327 | 25 | 90 | 20.9 | 29.0 | 0.00 | 0.00 | 0.00 | 26 | 1002.3 |
| 20260504233419 | 25 | 74 | 11.3 | 24.1 | 0.00 | 0.00 | 0.00 | 26 | 1002.3 |
| 20260504233314 | 25 | 83 | 11.3 | 24.1 | 0.00 | 0.00 | 0.00 | 25 | 1002.3 |
| 20260504232425 | 25 | 59 | 16.1 | 22.5 | 0.00 | 0.00 | 0.00 | 24 | 1002.1 |
| 20260504232338 | 25 | 63 | 16.1 | 22.5 | 0.00 | 0.00 | 0.00 | 24 | 1002.1 |
| 20260504231409 | 25 | 88 | 14.5 | 24.1 | 0.00 | 0.00 | 0.00 | 23 | 1002.0 |
| 20260504231322 | 25 | 79 | 16.1 | 24.1 | 0.00 | 0.00 | 0.00 | 24 | 1002.0 |
| 20260504230413 | 26 | 82 | 11.3 | 25.7 | 0.00 | 0.00 | 0.00 | 23 | 1001.8 |
| 20260504230311 | 26 | 120 | 11.3 | 25.7 | 0.00 | 0.00 | 0.00 | 23 | 1001.8 |
| 20260504225421 | 26 | 88 | 9.7 | 16.1 | 0.00 | 0.00 | 0.00 | 21 | 1001.8 |
| 20260504225334 | 26 | 84 | 6.4 | 16.1 | 0.00 | 0.00 | 0.00 | 23 | 1001.7 |
| 20260504224424 | 26 | 239 | 1.6 | 4.8 | 0.00 | 0.00 | 0.00 | 20 | 1001.6 |
| 20260504224337 | 26 | 67 | 1.6 | 3.2 | 0.00 | 0.00 | 0.00 | 22 | 1001.6 |
| 20260504223425 | 26 | 154 | 1.6 | 12.9 | 0.00 | 0.00 | 0.00 | 21 | 1001.7 |
| 20260504223315 | 26 | 153 | 3.2 | 17.7 | 0.00 | 0.00 | 0.00 | 22 | 1001.7 |
| 20260504222428 | 27 | 81 | 12.9 | 22.5 | 0.00 | 0.00 | 0.00 | 21 | 1001.7 |
| 20260504222320 | 27 | 76 | 11.3 | 22.5 | 0.00 | 0.00 | 0.00 | 21 | 1001.8 |
| 20260504221431 | 27 | 80 | 12.9 | 20.9 | 0.00 | 0.00 | 0.00 | 20 | 1001.9 |
| 20260504221324 | 27 | 80 | 11.3 | 19.3 | 0.00 | 0.00 | 0.00 | 21 | 1002.0 |
| 20260504220418 | 27 | 48 | 1.6 | 14.5 | 0.00 | 0.00 | 0.00 | 21 | 1002.0 |
| 20260504220331 | 27 | 64 | 0.0 | 14.5 | 0.00 | 0.00 | 0.00 | 19 | 1002.0 |
| 20260504215420 | 28 | 78 | 8.0 | 20.9 | 0.00 | 0.00 | 0.00 | 20 | 1002.2 |
| 20260504215314 | 28 | 56 | 9.7 | 20.9 | 0.00 | 0.00 | 0.00 | 20 | 1002.2 |
| 20260504214425 | 28 | 65 | 3.2 | 12.9 | 0.00 | 0.00 | 0.00 | 19 | 1002.3 |
| 20260504214315 | 28 | 142 | 4.8 | 12.9 | 0.00 | 0.00 | 0.00 | 19 | 1002.3 |
| 20260504213428 | 27 | 331 | 4.8 | 14.5 | 0.00 | 0.00 | 0.00 | 23 | 1002.4 |
| 20260504213321 | 27 | 309 | 4.8 | 14.5 | 0.00 | 0.00 | 0.00 | 21 | 1002.4 |
| 20260504212413 | 27 | 28 | 6.4 | 14.5 | 0.00 | 0.00 | 0.00 | 21 | 1002.5 |
| 20260504212310 | 27 | 29 | 6.4 | 14.5 | 0.00 | 0.00 | 0.00 | 20 | 1002.5 |
| 20260504211420 | 27 | 12 | 8.0 | 16.1 | 0.00 | 0.00 | 0.00 | 21 | 1002.6 |
| 20260504211313 | 27 | 340 | 9.7 | 16.1 | 0.00 | 0.00 | 0.00 | 21 | 1002.6 |
| 20260504210425 | 27 | 29 | 8.0 | 17.7 | 0.00 | 0.00 | 0.00 | 22 | 1002.7 |
| 20260504210318 | 27 | 15 | 4.8 | 17.7 | 0.00 | 0.00 | 0.00 | 22 | 1002.7 |
| 20260504205411 | 27 | 333 | 11.3 | 17.7 | 0.00 | 0.00 | 0.00 | 22 | 1002.7 |
| 20260504205323 | 27 | 338 | 11.3 | 17.7 | 0.00 | 0.00 | 0.00 | 23 | 1002.7 |
| 20260504204415 | 27 | 13 | 6.4 | 16.1 | 0.00 | 0.00 | 0.00 | 22 | 1002.8 |
| 20260504204332 | 27 | 38 | 8.0 | 16.1 | 0.00 | 0.00 | 0.00 | 23 | 1002.8 |
| 20260504203421 | 27 | 18 | 11.3 | 14.5 | 0.00 | 0.00 | 0.00 | 22 | 1002.8 |
| 20260504203316 | 27 | 38 | 11.3 | 14.5 | 0.00 | 0.00 | 0.00 | 21 | 1002.8 |
| 20260504202427 | 27 | 30 | 6.4 | 17.7 | 0.00 | 0.00 | 0.00 | 20 | 1003.0 |
| 20260504202315 | 27 | 13 | 6.4 | 17.7 | 0.00 | 0.00 | 0.00 | 20 | 1003.0 |
| 20260504201426 | 28 | 346 | 9.7 | 24.1 | 0.00 | 0.00 | 0.00 | 19 | 1003.1 |
| 20260504201339 | 28 | 350 | 14.5 | 24.1 | 0.00 | 0.00 | 0.00 | 19 | 1003.1 |
| 20260504200429 | 28 | 328 | 9.7 | 17.7 | 0.00 | 0.00 | 0.00 | 20 | 1003.3 |
| 20260504200321 | 28 | 349 | 11.3 | 17.7 | 0.00 | 0.00 | 0.00 | 21 | 1003.3 |
| 20260504195417 | 28 | 301 | 6.4 | 17.7 | 0.00 | 0.00 | 0.00 | 18 | 1003.3 |
| 20260504195330 | 28 | 297 | 6.4 | 17.7 | 0.00 | 0.00 | 0.00 | 18 | 1003.3 |
| 20260504194421 | 28 | 197 | 14.5 | 24.1 | 0.00 | 0.00 | 0.00 | 17 | 1003.2 |
| 20260504194314 | 28 | 216 | 11.3 | 19.3 | 0.00 | 0.00 | 0.00 | 17 | 1003.3 |
| 20260504193446 | 29 | 283 | 3.2 | 12.9 | 0.00 | 0.00 | 0.00 | 17 | 1003.3 |
| 20260504193317 | 29 | 282 | 4.8 | 12.9 | 0.00 | 0.00 | 0.00 | 19 | 1003.4 |
| 20260504192427 | 30 | 145 | 9.7 | 27.4 | 0.00 | 0.00 | 0.00 | 18 | 1003.5 |
| 20260504192320 | 30 | 216 | 9.7 | 27.4 | 0.00 | 0.00 | 0.00 | 19 | 1003.5 |
| 20260504191413 | 29 | 228 | 17.7 | 22.5 | 0.00 | 0.00 | 0.00 | 23 | 1003.7 |
| 20260504191330 | 29 | 250 | 17.7 | 22.5 | 0.00 | 0.00 | 0.00 | 21 | 1003.7 |
| 20260504190422 | 28 | 146 | 6.4 | 25.7 | 0.00 | 0.00 | 0.00 | 19 | 1003.6 |
| 20260504190315 | 28 | 143 | 8.0 | 25.7 | 0.00 | 0.00 | 0.00 | 19 | 1003.7 |
| 20260504185424 | 29 | 234 | 8.0 | 22.5 | 0.00 | 0.00 | 0.00 | 21 | 1003.8 |
| 20260504185318 | 29 | 284 | 4.8 | 12.9 | 0.00 | 0.00 | 0.00 | 19 | 1003.8 |
| 20260504184429 | 29 | 239 | 8.0 | 25.7 | 0.00 | 0.00 | 0.00 | 21 | 1004.0 |
| 20260504184323 | 29 | 236 | 14.5 | 25.7 | 0.00 | 0.00 | 0.00 | 21 | 1004.0 |
| 20260504183415 | 28 | 180 | 12.9 | 24.1 | 0.00 | 0.00 | 0.00 | 20 | 1004.2 |
| 20260504183313 | 28 | 211 | 16.1 | 24.1 | 0.00 | 0.00 | 0.00 | 21 | 1004.2 |
| 20260504182423 | 28 | 225 | 12.9 | 22.5 | 0.00 | 0.00 | 0.00 | 22 | 1004.3 |
| 20260504182316 | 27 | 248 | 8.0 | 17.7 | 0.00 | 0.00 | 0.00 | 25 | 1004.3 |
| 20260504181427 | 27 | 227 | 11.3 | 22.5 | 0.00 | 0.00 | 0.00 | 23 | 1004.5 |
| 20260504181320 | 27 | 259 | 9.7 | 32.2 | 0.00 | 0.00 | 0.00 | 25 | 1004.6 |
| 20260504180423 | 27 | 242 | 24.1 | 32.2 | 0.00 | 0.00 | 0.00 | 23 | 1004.7 |
| 20260504180316 | 27 | 226 | 17.7 | 29.0 | 0.00 | 0.00 | 0.00 | 23 | 1004.7 |
| 20260504175426 | 27 | 266 | 11.3 | 16.1 | 0.00 | 0.00 | 0.00 | 21 | 1004.8 |
| 20260504175321 | 28 | 289 | 9.7 | 16.1 | 0.00 | 0.00 | 0.00 | 22 | 1004.9 |
| 20260504174411 | 28 | 260 | 4.8 | 16.1 | 0.00 | 0.00 | 0.00 | 20 | 1005.0 |
| 20260504174323 | 28 | 286 | 3.2 | 16.1 | 0.00 | 0.00 | 0.00 | 20 | 1005.0 |
| 20260504173435 | 29 | 304 | 12.9 | 20.9 | 0.00 | 0.00 | 0.00 | 22 | 1005.1 |
| 20260504173348 | 29 | 263 | 12.9 | 20.9 | 0.00 | 0.00 | 0.00 | 21 | 1005.1 |
| 20260504172418 | 28 | 309 | 19.3 | 25.7 | 0.00 | 0.00 | 0.00 | 22 | 1005.2 |
| 20260504172312 | 28 | 302 | 14.5 | 20.9 | 0.00 | 0.00 | 0.00 | 22 | 1005.2 |
| 20260504171423 | 29 | 205 | 11.3 | 24.1 | 0.00 | 0.00 | 0.00 | 20 | 1005.4 |
| 20260504171316 | 29 | 265 | 16.1 | 24.1 | 0.00 | 0.00 | 0.00 | 22 | 1005.4 |
| 20260504170428 | 29 | 312 | 11.3 | 24.1 | 0.00 | 0.00 | 0.00 | 23 | 1005.3 |
| 20260504170324 | 29 | 338 | 14.5 | 24.1 | 0.00 | 0.00 | 0.00 | 23 | 1005.4 |
| 20260504160416 | 27 | 263 | 12.9 | 25.7 | 0.00 | 0.00 | 0.00 | 26 | 1005.5 |
| 20260504160307 | 27 | 284 | 12.9 | 29.0 | 0.00 | 0.00 | 0.00 | 26 | 1005.6 |
| 20260504150422 | 22 | 267 | 12.9 | 22.5 | 0.00 | 0.00 | 0.00 | 37 | 1005.9 |
| 20260504150334 | 22 | 236 | 12.9 | 22.5 | 0.00 | 0.00 | 0.00 | 37 | 1005.9 |
| 20260504141314 | 17 | 236 | 8.0 | 14.5 | 0.00 | 0.00 | 0.00 | 55 | 1006.1 |
| 20260504140424 | 16 | 258 | 9.7 | 12.9 | 0.00 | 0.00 | 0.00 | 56 | 1006.1 |
| 20260504140337 | 16 | 267 | 8.0 | 12.9 | 0.00 | 0.00 | 0.00 | 56 | 1006.1 |
| 20260504130410 | 9 | 263 | 8.0 | 16.1 | 0.00 | 0.00 | 0.00 | 72 | 1006.1 |
| 20260504130344 | 9 | 269 | 6.4 | 16.1 | 0.00 | 0.00 | 0.00 | 72 | 1006.1 |
| 20260504120313 | 5 | 285 | 14.5 | 17.7 | 0.00 | 0.00 | 0.00 | 79 | 1005.6 |
| 20260504110426 | 6 | 313 | 11.3 | 16.1 | 0.00 | 0.00 | 0.00 | 74 | 1005.7 |
| 20260504110318 | 6 | 316 | 9.7 | 14.5 | 0.00 | 0.00 | 0.00 | 74 | 1005.6 |
| 20260504100431 | 6 | 26 | 8.0 | 16.1 | 0.00 | 0.00 | 0.00 | 74 | 1006.1 |
| 20260504100322 | 6 | 42 | 11.3 | 16.1 | 0.00 | 0.00 | 0.00 | 74 | 1006.1 |
| 20260504081427 | 6 | 245 | 12.9 | 14.5 | 0.00 | 0.00 | 0.00 | 76 | 1006.8 |
| 20260504081317 | 6 | 243 | 12.9 | 14.5 | 0.00 | 0.00 | 0.00 | 75 | 1006.9 |
| 20260504080425 | 6 | 246 | 9.7 | 12.9 | 0.00 | 0.00 | 0.00 | 73 | 1006.9 |
| 20260504080315 | 6 | 243 | 8.0 | 12.9 | 0.00 | 0.00 | 0.00 | 73 | 1006.9 |
| 20260504070324 | 7 | 282 | 8.0 | 11.3 | 0.00 | 0.00 | 0.00 | 64 | 1007.7 |
| 20260504050441 | 13 | 77 | 14.5 | 17.7 | 0.00 | 0.00 | 0.00 | 50 | 1007.8 |
| 20260504050313 | 13 | 90 | 14.5 | 17.7 | 0.00 | 0.00 | 0.00 | 50 | 1007.8 |
| 20260504045425 | 13 | 87 | 14.5 | 17.7 | 0.00 | 0.00 | 0.00 | 49 | 1007.9 |
| 20260504045316 | 13 | 81 | 14.5 | 17.7 | 0.00 | 0.00 | 0.00 | 49 | 1007.8 |
| 20260504044408 | 13 | 61 | 14.5 | 19.3 | 0.00 | 0.00 | 0.00 | 49 | 1007.8 |
| 20260504044342 | 13 | 95 | 14.5 | 19.3 | 0.00 | 0.00 | 0.00 | 49 | 1007.7 |
| 20260504043411 | 13 | 86 | 16.1 | 19.3 | 0.00 | 0.00 | 0.00 | 49 | 1007.9 |
| 20260504043324 | 13 | 78 | 16.1 | 19.3 | 0.00 | 0.00 | 0.00 | 49 | 1007.9 |
| 20260504042415 | 13 | 97 | 12.9 | 17.7 | 0.00 | 0.00 | 0.00 | 47 | 1008.0 |
| 20260504042311 | 13 | 83 | 12.9 | 17.7 | 0.00 | 0.00 | 0.00 | 47 | 1008.0 |
| 20260504041422 | 13 | 125 | 11.3 | 17.7 | 0.00 | 0.00 | 0.00 | 46 | 1008.1 |
| 20260504041314 | 13 | 69 | 11.3 | 17.7 | 0.00 | 0.00 | 0.00 | 46 | 1008.1 |
| 20260504040426 | 14 | 98 | 12.9 | 16.1 | 0.00 | 0.00 | 0.00 | 43 | 1008.1 |
| 20260504040316 | 14 | 92 | 12.9 | 16.1 | 0.00 | 0.00 | 0.00 | 42 | 1008.1 |
| 20260504035449 | 15 | 88 | 14.5 | 19.3 | 0.00 | 0.00 | 0.00 | 39 | 1008.1 |
| 20260504035320 | 15 | 70 | 14.5 | 19.3 | 0.00 | 0.00 | 0.00 | 39 | 1008.1 |
| 20260504034411 | 16 | 76 | 16.1 | 19.3 | 0.00 | 0.00 | 0.00 | 37 | 1008.2 |
| 20260504034324 | 16 | 88 | 16.1 | 19.3 | 0.00 | 0.00 | 0.00 | 37 | 1008.1 |
| 20260504033419 | 16 | 84 | 16.1 | 19.3 | 0.00 | 0.00 | 0.00 | 34 | 1008.2 |
| 20260504033313 | 16 | 81 | 16.1 | 19.3 | 0.00 | 0.00 | 0.00 | 34 | 1008.1 |
| 20260504032424 | 17 | 86 | 14.5 | 19.3 | 0.00 | 0.00 | 0.00 | 32 | 1008.1 |
| 20260504032317 | 17 | 84 | 14.5 | 19.3 | 0.00 | 0.00 | 0.00 | 32 | 1008.1 |
| 20260504031427 | 17 | 76 | 12.9 | 19.3 | 0.00 | 0.00 | 0.00 | 29 | 1008.1 |
| 20260504031318 | 17 | 63 | 12.9 | 19.3 | 0.00 | 0.00 | 0.00 | 29 | 1008.0 |
| 20260504030409 | 17 | 67 | 8.0 | 12.9 | 0.00 | 0.00 | 0.00 | 30 | 1007.9 |
| 20260504030318 | 17 | 69 | 6.4 | 12.9 | 0.00 | 0.00 | 0.00 | 30 | 1008.0 |
| 20260504025429 | 17 | 76 | 8.0 | 14.5 | 0.00 | 0.00 | 0.00 | 29 | 1007.9 |
| 20260504025325 | 17 | 68 | 9.7 | 14.5 | 0.00 | 0.00 | 0.00 | 29 | 1007.9 |
| 20260504024414 | 18 | 75 | 8.0 | 16.1 | 0.00 | 0.00 | 0.00 | 30 | 1007.9 |
| 20260504024326 | 18 | 92 | 8.0 | 16.1 | 0.00 | 0.00 | 0.00 | 32 | 1007.9 |
| 20260504023417 | 18 | 59 | 16.1 | 16.1 | 0.00 | 0.00 | 0.00 | 29 | 1007.8 |
| 20260504023330 | 18 | 57 | 14.5 | 16.1 | 0.00 | 0.00 | 0.00 | 29 | 1007.8 |
| 20260504022416 | 18 | 61 | 14.5 | 16.1 | 0.00 | 0.00 | 0.00 | 30 | 1007.8 |
| 20260504022329 | 18 | 60 | 14.5 | 16.1 | 0.00 | 0.00 | 0.00 | 30 | 1007.8 |
| 20260504021420 | 19 | 66 | 11.3 | 16.1 | 0.00 | 0.00 | 0.00 | 30 | 1007.8 |
| 20260504021337 | 19 | 76 | 9.7 | 14.5 | 0.00 | 0.00 | 0.00 | 29 | 1007.8 |
| 20260504020427 | 20 | 62 | 8.0 | 14.5 | 0.00 | 0.00 | 0.00 | 28 | 1007.7 |
| 20260504020333 | 20 | 86 | 8.0 | 14.5 | 0.00 | 0.00 | 0.00 | 28 | 1007.7 |
| 20260504015423 | 20 | 60 | 11.3 | 14.5 | 0.00 | 0.00 | 0.00 | 27 | 1007.6 |
| 20260504015317 | 20 | 57 | 11.3 | 14.5 | 0.00 | 0.00 | 0.00 | 27 | 1007.5 |
| 20260504014425 | 20 | 60 | 12.9 | 14.5 | 0.00 | 0.00 | 0.00 | 28 | 1007.6 |
| 20260504014318 | 20 | 61 | 11.3 | 14.5 | 0.00 | 0.00 | 0.00 | 28 | 1007.5 |
| 20260504013450 | 21 | 67 | 4.8 | 6.4 | 0.00 | 0.00 | 0.00 | 28 | 1007.6 |
| 20260504013322 | 21 | 47 | 6.4 | 6.4 | 0.00 | 0.00 | 0.00 | 28 | 1007.6 |
| 20260504012413 | 21 | 51 | 4.8 | 9.7 | 0.00 | 0.00 | 0.00 | 27 | 1007.7 |
| 20260504012328 | 21 | 40 | 4.8 | 9.7 | 0.00 | 0.00 | 0.00 | 27 | 1007.7 |